Location: Buttermere
(51.3333°N, 1.5167°W)
Time: 13:55:38
(UTC+00:00)

Cosmos 2278 Rocket - Pass Details

Date: 18 September 2020
Orbit: 841 x 845 km, 71.0° (Epoch: 27 October)

Event Time Altitude Azimuth Distance (km) Brightness Sun altitude
Exits shadow 21:22:13 17° 49° (NE) 2,021 4.1 -27.6°
Drops below altitude 10° 21:23:33 10° 42° (NE) 2,470 4.6 -27.7°
Sets 21:26:08 0° 35° (NE) 3,409 5.5 -28.0°
